Theta_e
318 316 315 314 313 312 314 317 318 317 315 315 314 314 314 315 314 313 312 312 312 312 312 311 310 309 308 307 306 306 305 305 305 304 303 303 303 303 303 304 304 304 303 303 303 302 301 301 301 301 301 301 300 300 300 300 300 300 301 301 302 304 305 305 305 304 304 305 305 304 305 305 305 305 304 304 303 304 304 305 307 308 309 311 314
319 319 317 316 315 313 313 316 318 318 318 317 316 316 316 316 316 315 313 312 313 313 313 312 311 310 309 308 308 307 306 305 305 305 304 303 302 302 303 303 304 303 303 303 303 302 301 300 300 300 300 300 300 300 299 299 299 299 300 300 302 304 304 303 303 303 303 303 304 304 304 304 305 305 306 305 305 304 304 303 305 309 312 316 318
321 320 320 319 318 316 315 315 317 318 318 318 318 317 317 317 317 317 315 313 313 313 312 312 312 311 310 309 308 308 306 306 305 305 304 303 302 302 302 303 303 303 303 303 302 301 300 300 300 299 300 299 299 299 299 298 298 298 298 299 301 303 303 303 303 303 303 303 303 303 304 304 304 304 305 306 306 306 305 304 304 306 312 316 318
320 321 321 321 320 320 319 317 317 317 318 319 319 318 318 318 318 318 317 315 313 313 313 312 312 311 310 309 308 308 307 306 305 305 305 304 302 302 302 303 303 303 302 302 301 300 299 299 299 299 298 298 298 298 297 298 297 297 297 298 299 300 302 302 303 303 303 303 303 304 304 304 304 304 305 306 307 307 307 305 304 304 308 313 316
318 318 320 321 321 321 321 320 319 317 318 318 318 318 318 318 318 318 318 317 315 314 313 313 312 311 310 309 309 309 308 306 306 305 305 304 303 302 302 303 303 303 302 301 300 299 298 298 297 297 297 296 296 296 296 296 296 296 296 297 298 298 299 301 302 302 302 302 303 303 303 304 304 304 305 306 307 308 308 308 306 304 304 308 313
316 318 319 320 320 321 321 321 321 320 319 318 317 318 318 319 319 319 319 318 316 314 314 313 313 312 310 309 309 309 308 307 306 305 305 305 304 302 302 302 303 303 302 301 299 298 297 297 296 296 296 296 296 295 295 295 295 295 296 296 297 298 298 299 300 300 300 301 301 302 302 302 303 303 304 304 306 308 309 309 308 307 305 304 307
312 314 316 317 317 318 319 320 321 321 321 320 319 319 319 319 319 319 319 318 316 315 315 314 313 312 311 310 309 309 309 307 306 305 305 304 303 302 302 302 303 302 302 300 298 297 296 296 296 296 297 297 297 297 296 296 297 297 298 298 298 298 298 298 299 299 299 300 300 301 301 301 302 302 303 303 304 306 307 309 309 309 308 306 305
308 309 311 312 312 313 315 318 320 321 321 321 321 321 321 320 320 319 319 318 316 315 315 314 313 313 312 310 310 310 309 308 306 305 305 304 303 302 302 302 302 302 301 299 298 296 296 296 296 296 296 297 297 298 297 297 298 298 299 299 299 300 299 299 299 299 299 299 300 300 301 301 301 302 302 302 303 304 306 308 309 310 309 308 306
306 307 307 309 310 310 311 313 316 319 320 320 321 321 321 321 320 320 319 318 317 316 315 313 312 312 311 310 310 310 309 308 306 305 304 303 302 302 302 302 302 300 299 298 296 296 295 295 295 295 296 296 296 297 297 297 297 298 298 298 298 299 299 299 299 299 299 300 300 300 300 301 301 302 302 301 302 303 304 304 306 308 308 308 308
305 305 306 306 307 308 309 310 312 315 318 320 320 321 321 321 321 320 319 318 317 316 315 313 312 312 311 310 310 310 308 307 305 304 304 303 302 302 302 301 300 298 297 296 295 295 294 294 294 295 295 295 295 296 296 297 297 297 297 297 297 298 298 299 299 299 299 299 299 299 300 300 301 301 302 301 301 302 303 303 304 305 307 308 309
305 305 305 305 305 306 307 308 309 312 314 317 319 320 320 320 320 320 319 318 317 316 315 312 312 312 311 310 310 309 307 306 305 304 303 302 302 301 300 298 297 295 295 294 294 294 294 294 294 294 294 295 295 295 295 296 296 297 297 297 297 297 297 297 298 298 299 299 299 299 299 299 300 300 301 301 301 301 302 302 302 303 305 307 308
303 303 303 304 304 304 305 306 307 308 311 314 317 319 319 320 320 319 319 317 316 315 314 312 312 311 311 309 308 307 306 305 304 303 302 302 300 298 296 295 294 294 293 293 293 293 293 293 293 293 294 294 295 295 295 296 296 296 297 297 297 297 297 297 297 297 297 298 298 298 299 299 299 299 299 300 300 300 301 301 302 302 303 305 306
302 302 302 302 303 303 304 304 305 306 307 310 314 318 319 319 319 319 318 317 316 314 313 312 311 311 310 308 307 306 305 304 303 302 301 299 297 295 294 293 293 293 293 293 293 293 292 293 293 293 294 294 295 295 295 296 296 296 296 297 297 297 298 297 297 296 296 296 296 297 298 298 298 298 298 299 299 300 300 301 301 302 302 303 305
301 301 301 301 302 302 302 303 304 304 305 307 311 315 317 318 318 318 318 316 315 314 313 312 311 310 309 307 306 305 304 303 302 301 299 296 294 294 293 292 292 292 293 292 292 292 292 292 293 293 294 294 294 295 295 296 296 296 296 297 297 297 297 297 297 297 297 296 296 296 297 297 297 297 298 298 298 299 299 300 300 301 301 302 303
300 300 300 301 301 301 302 303 303 303 304 305 309 313 315 317 317 317 317 315 314 313 313 312 310 309 308 306 305 304 303 303 301 298 296 294 294 293 293 292 292 292 292 292 292 292 292 292 293 293 294 294 295 295 295 296 296 296 296 297 297 297 297 297 297 297 296 297 296 297 297 297 297 297 297 297 298 298 298 298 299 299 300 300 301
300 300 300 300 301 301 302 302 303 303 303 304 308 312 314 315 316 317 316 315 313 312 312 310 309 308 306 305 304 304 303 301 298 296 295 295 294 293 292 292 292 292 292 291 291 291 292 292 293 294 294 294 295 295 295 296 296 296 296 296 296 297 297 297 297 296 296 296 296 296 296 296 296 296 296 296 296 297 297 297 297 297 298 299 300
299 299 300 300 300 301 301 302 302 303 303 304 307 311 313 315 316 316 315 314 312 311 311 309 308 306 305 304 304 304 302 299 296 296 296 295 294 293 292 292 292 292 291 291 291 292 292 293 293 293 294 295 295 295 295 295 295 295 295 295 295 295 296 296 296 296 296 296 296 295 295 295 295 295 295 295 295 295 295 295 296 296 297 298 299
299 299 299 299 299 300 300 301 302 303 303 303 306 310 313 315 316 315 314 313 312 311 310 308 306 305 305 305 305 302 299 297 296 296 295 294 294 293 293 292 292 291 291 291 291 292 292 293 293 294 294 294 294 294 294 294 294 294 294 294 294 294 294 295 295 295 295 295 295 295 294 294 294 294 294 295 295 294 294 295 295 296 297 297 298
299 299 299 299 300 300 300 301 302 303 303 303 304 309 312 314 315 314 313 311 310 309 307 306 305 305 305 304 302 299 297 296 295 295 295 294 294 293 293 292 292 291 291 291 291 292 292 293 293 294 294 295 294 294 294 293 293 293 293 292 292 292 293 293 293 293 293 294 294 294 294 293 293 294 294 294 295 295 294 294 295 295 296 297 298
300 300 300 300 300 300 300 300 301 303 304 303 305 309 313 314 314 313 311 310 309 307 305 305 305 305 303 301 299 297 296 295 295 295 295 295 294 293 292 292 292 291 291 291 291 291 291 292 292 293 294 294 294 294 293 293 292 292 292 291 291 292 292 292 292 292 292 292 292 292 292 292 293 293 293 294 294 294 294 294 294 295 295 296 297
301 301 301 301 301 301 301 301 302 304 304 304 307 311 314 314 314 312 310 309 307 306 305 305 304 302 300 298 297 296 296 296 296 296 295 294 293 292 292 292 292 291 291 291 291 291 291 291 292 293 293 294 294 293 293 293 292 292 291 291 292 292 292 291 290 290 290 290 290 290 291 291 291 292 293 293 293 294 294 294 295 295 295 296 297
302 302 302 302 302 302 301 302 303 304 305 306 309 312 313 313 312 311 309 307 306 305 305 303 302 300 298 297 296 296 297 297 296 295 293 293 293 293 292 292 291 291 290 290 290 290 291 292 292 293 293 293 293 293 292 292 292 292 292 292 292 292 291 290 290 290 290 290 290 290 290 291 291 292 292 292 293 293 294 294 294 295 295 296 297
302 303 303 303 303 303 303 304 305 305 306 308 311 312 312 312 310 309 307 306 306 305 303 301 300 298 297 297 297 296 296 295 294 293 293 293 292 292 292 291 290 290 290 290 290 291 292 292 292 292 292 292 292 292 292 292 291 291 291 291 291 291 291 291 291 291 291 291 291 291 291 291 291 292 292 292 293 293 293 293 294 294 295 296 296
303 303 303 304 304 304 305 306 306 306 307 310 311 312 311 310 308 307 306 306 304 302 300 298 298 298 298 297 296 295 293 293 292 292 292 292 292 291 290 290 290 290 290 291 292 293 292 292 292 292 292 292 292 292 292 291 291 291 291 291 291 291 291 291 292 292 292 292 292 292 293 293 293 293 293 293 293 293 293 293 293 294 295 295 296
303 304 304 304 304 305 306 307 307 308 309 311 311 311 309 307 306 305 304 302 300 298 298 298 298 298 297 295 294 293 292 292 292 292 291 291 290 290 290 290 291 292 292 293 293 293 293 293 292 292 292 291 291 291 291 291 291 291 291 291 291 291 291 292 292 292 293 293 293 294 294 295 294 294 294 294 293 293 293 293 293 294 294 295 295
304 304 304 304 305 306 306 307 308 309 310 309 309 308 305 303 302 300 299 298 298 298 298 298 297 295 294 294 293 293 292 292 291 291 290 290 290 290 291 292 293 293 293 293 293 293 293 292 291 291 290 290 290 290 290 290 290 291 291 291 291 291 291 292 292 292 293 293 294 294 295 295 295 295 295 294 294 294 294 294 293 293 294 294 295
304 304 304 304 305 306 307 308 309 308 307 306 305 304 302 301 300 298 297 298 298 298 297 296 295 294 295 294 294 293 293 292 291 290 290 290 291 292 293 293 293 293 293 293 293 292 291 290 290 290 290 290 290 290 290 290 290 290 290 290 290 291 291 291 292 292 292 293 293 294 295 295 295 295 295 294 294 294 295 294 293 293 294 294 294
304 304 304 304 305 306 307 308 308 306 304 303 302 301 300 299 298 297 297 298 297 296 295 295 295 295 295 295 294 294 293 291 290 290 290 291 292 293 293 293 293 293 293 292 292 291 290 290 290 290 290 290 290 289 290 290 289 289 290 290 290 290 291 291 291 292 292 293 293 294 295 296 296 295 294 293 293 294 294 293 293 293 294 294 294
304 304 304 304 306 307 307 307 306 303 302 301 299 298 298 297 298 298 298 297 295 294 295 295 295 295 295 295 294 293 292 291 290 290 291 292 293 293 293 292 292 292 292 291 290 290 289 289 289 289 289 289 289 289 289 289 289 289 290 290 290 291 291 291 292 292 293 293 294 295 295 295 295 295 294 293 293 293 293 293 293 293 293 293 294
304 304 304 305 306 306 306 305 303 301 299 298 298 298 298 297 297 298 297 295 295 295 295 295 295 295 295 295 294 293 292 290 290 291 292 293 293 292 292 292 292 292 291 290 290 289 289 289 289 289 289 289 289 289 289 290 290 290 290 290 290 291 291 292 292 293 293 294 294 295 295 295 296 296 295 294 294 294 293 293 293 293 293 293 294
303 304 304 305 306 305 304 302 300 299 298 298 298 298 297 296 296 296 296 295 295 296 295 295 295 295 295 294 293 292 291 290 290 291 292 293 292 292 292 292 292 291 291 290 289 289 289 289 289 289 289 289 289 289 290 290 290 290 290 290 291 291 291 292 293 293 293 294 294 295 295 296 296 296 296 295 295 294 294 293 293 293 293 294 294
303 304 304 305 304 304 301 299 298 298 298 298 298 298 297 295 295 295 295 295 295 295 295 295 295 295 295 294 293 291 290 290 291 292 292 293 292 292 292 291 291 291 291 290 289 289 288 288 289 289 289 289 289 289 289 290 290 290 290 290 290 291 291 292 293 293 293 294 294 295 295 296 296 297 297 296 295 294 294 293 293 293 293 294 294
304 304 304 303 302 301 299 298 298 299 299 299 298 297 296 295 295 295 295 295 295 295 295 295 295 295 294 293 292 291 290 290 291 291 292 292 292 292 292 292 291 291 291 290 289 288 288 289 288 289 289 289 289 290 289 289 290 290 290 290 290 291 291 292 292 293 293 294 294 295 295 296 296 297 296 296 295 294 294 293 293 293 293 294 294
304 303 302 301 300 299 299 299 299 299 299 298 297 296 295 295 296 295 295 294 295 295 295 295 295 295 294 293 292 291 290 290 290 291 291 291 292 292 292 292 291 291 290 289 288 288 288 288 288 289 289 289 289 289 289 289 289 289 290 290 290 291 291 292 292 293 293 294 295 295 295 296 296 297 296 296 295 295 294 294 293 293 294 294 295
302 300 299 299 299 299 299 299 299 299 298 297 295 295 295 296 295 295 295 295 295 295 295 295 295 294 293 293 292 291 290 290 290 290 290 291 291 292 292 291 291 290 290 289 288 288 288 288 288 289 289 289 289 289 289 289 289 289 290 290 290 291 291 292 292 293 294 294 295 295 296 296 296 297 296 296 295 295 295 294 294 294 294 294 295
299 298 298 298 299 299 299 298 299 298 297 295 295 295 295 295 295 295 295 295 295 295 295 295 295 294 293 293 292 291 291 290 290 290 290 290 290 291 291 291 290 290 289 289 288 288 288 288 288 288 289 289 289 289 289 289 289 289 289 290 290 290 291 292 292 293 294 294 295 295 295 296 296 296 296 295 295 295 295 295 295 294 294 295 295
298 299 299 299 299 299 299 298 298 297 295 295 295 296 295 295 295 295 295 295 295 295 295 295 295 294 294 293 293 292 291 290 290 290 290 290 290 290 290 290 290 289 289 288 288 288 288 288 288 288 289 289 289 289 289 289 289 289 290 290 290 290 291 292 292 293 294 294 295 295 295 296 296 296 296 296 296 295 295 295 295 295 294 295 295
299 300 299 299 299 299 299 298 297 296 295 295 296 296 295 295 295 296 296 296 295 295 295 295 295 295 294 294 293 292 291 291 290 290 290 290 290 290 290 290 290 290 289 289 288 288 288 288 288 288 289 289 289 289 289 289 289 290 290 290 290 290 291 292 293 293 294 294 295 295 295 296 296 296 296 296 296 296 296 296 296 295 295 295 295
299 299 299 299 298 299 298 298 297 296 296 296 295 295 295 296 296 296 296 296 295 295 295 295 295 295 295 294 293 292 292 291 291 291 290 290 290 290 290 290 290 290 289 289 289 288 288 288 288 288 289 289 289 289 289 289 289 290 290 290 290 290 291 292 292 293 294 294 295 296 296 296 296 297 297 297 297 296 296 297 296 296 296 296 296
299 299 299 298 299 299 298 297 296 296 295 295 295 295 296 296 296 296 296 296 296 295 295 295 295 295 295 294 293 293 292 292 291 291 291 291 290 290 290 290 289 289 289 289 289 288 288 288 288 288 289 289 289 289 289 289 289 290 290 290 290 290 291 291 292 293 293 294 295 296 296 297 297 297 297 297 297 297 297 297 297 297 297 297 297
299 299 299 299 299 299 297 296 296 296 296 296 296 296 296 296 296 296 296 296 296 296 296 295 295 295 295 294 293 293 292 292 292 292 291 291 291 290 290 290 290 289 289 289 289 288 288 288 288 288 288 289 289 289 289 289 290 290 290 290 290 290 291 292 292 293 293 295 296 297 297 297 297 297 298 298 298 297 297 297 298 298 298 297 297
299 299 299 299 299 298 296 295 296 296 296 296 297 296 296 297 297 297 296 296 296 296 296 295 295 294 294 294 293 293 292 292 292 292 292 292 291 291 291 290 290 289 289 289 288 288 288 288 288 288 288 288 289 289 289 289 289 290 290 290 290 290 291 292 292 293 294 295 295 296 297 297 297 298 298 298 298 298 298 298 298 299 298 298 297
299 299 299 299 298 297 296 296 296 296 296 297 296 296 297 297 297 297 296 296 296 296 295 295 295 295 295 294 293 293 293 292 293 293 292 292 292 292 291 291 290 290 289 289 288 288 288 288 288 288 288 288 289 289 289 289 289 290 290 290 290 290 291 291 292 293 294 295 295 296 297 297 298 298 298 298 298 298 298 299 299 299 298 298 297
300 300 299 299 297 296 296 296 296 296 297 297 296 296 297 297 297 296 296 296 296 296 296 295 295 295 295 294 294 293 293 292 293 293 293 293 292 292 291 291 290 290 290 289 289 288 288 288 288 288 288 289 289 289 289 289 289 290 290 290 290 290 290 291 292 293 294 294 295 296 297 298 298 298 298 298 298 298 299 299 298 298 298 297 297
300 300 300 299 297 296 296 296 297 297 297 297 297 297 297 297 297 296 296 296 296 296 296 296 295 295 295 294 294 294 293 293 293 293 293 293 293 292 292 291 291 290 290 289 289 289 288 288 288 288 288 289 289 289 289 289 290 290 290 290 290 290 290 291 292 293 293 294 295 296 297 298 298 298 298 298 297 298 298 298 298 298 298 297 297
300 299 299 299 298 297 297 297 297 297 297 297 297 297 297 297 296 296 296 296 297 297 296 296 296 295 295 294 294 294 294 293 293 293 293 293 293 293 292 292 291 290 290 290 289 289 288 288 288 288 288 289 289 289 289 289 290 290 290 290 290 290 290 291 292 293 293 294 295 296 296 297 297 298 298 298 297 297 298 297 297 297 297 297 297
300 298 298 298 298 297 297 297 297 297 298 298 297 297 296 296 296 296 296 297 297 296 296 296 296 296 296 295 295 295 294 294 294 293 292 293 293 293 293 292 291 290 290 290 289 289 288 288 288 288 289 289 289 289 289 289 289 290 290 290 290 290 291 291 292 293 293 294 294 295 296 296 296 297 297 297 297 297 297 297 297 297 296 296 296
299 298 298 297 297 297 297 297 298 298 298 297 297 296 296 296 296 296 296 296 295 294 294 294 295 295 296 296 296 295 295 295 294 294 293 293 293 293 293 292 291 290 290 290 289 289 288 288 288 289 289 289 289 289 289 289 289 290 290 290 290 290 291 291 291 292 293 293 294 294 295 296 296 296 296 296 296 296 296 296 296 296 296 295 295
298 298 298 298 298 298 298 298 297 297 297 296 296 296 296 296 296 295 294 293 293 292 292 293 293 294 294 295 296 296 295 295 295 294 293 293 293 293 293 293 292 291 290 290 289 289 289 289 289 289 289 289 289 290 289 289 290 290 290 290 291 291 291 291 291 292 292 293 293 294 295 295 295 295 296 296 296 296 296 295 295 295 295 295 294
298 298 298 298 298 297 297 297 296 296 296 296 296 296 296 295 293 292 292 292 292 292 292 292 292 293 294 294 295 295 295 295 295 294 293 293 293 293 293 293 292 291 290 290 289 289 289 289 289 289 289 289 289 290 290 290 290 290 290 290 291 291 291 291 291 291 292 292 293 293 294 294 295 295 295 295 295 295 295 295 294 294 294 294 294
296 297 297 297 296 296 296 296 296 296 296 295 295 294 293 292 291 291 291 291 291 291 291 291 292 293 293 294 294 295 295 295 295 295 293 293 293 293 293 293 292 291 290 290 289 289 289 289 289 289 289 290 290 290 290 290 290 290 290 290 291 291 291 291 291 291 292 292 293 293 293 294 294 294 294 294 294 294 294 294 294 294 293 293 293
Wind_Speed
32 34 35 34 33 31 27 24 24 24 25 26 26 26 25 23 22 22 21 20 20 19 17 15 14 13 14 14 13 12 12 11 11 11 11 12 12 12 11 11 12 13 15 17 18 19 19 19 20 20 20 21 20 19 18 17 16 14 14 16 15 12 13 14 21 31 32 29 31 32 31 32 31 31 31 31 30 27 25 24 25 25 25 25 26
22 27 32 34 36 35 32 29 27 24 25 28 28 28 27 26 25 24 24 23 22 21 20 18 17 16 16 16 15 15 14 13 13 13 14 14 14 15 14 13 13 13 15 16 18 18 19 20 20 21 21 21 21 20 20 19 19 17 16 16 13 10 12 14 19 27 32 30 30 31 32 31 31 31 30 31 31 30 27 24 23 24 24 23 24
13 18 23 27 31 33 34 35 33 29 27 28 30 30 29 28 27 27 26 25 24 23 22 20 19 19 19 18 18 17 16 15 15 15 16 16 17 17 17 16 15 15 16 17 18 18 19 20 21 22 22 21 21 20 20 19 19 19 18 18 15 11 10 13 16 21 28 30 29 28 29 30 30 31 30 30 31 30 28 26 24 24 24 23 22
10 12 17 20 22 25 30 35 37 37 34 32 30 30 31 31 31 30 29 28 27 26 24 23 22 22 22 22 21 19 18 17 17 17 18 19 20 19 19 19 18 18 18 19 19 20 21 22 22 22 22 21 21 20 20 20 19 19 19 19 19 17 13 13 15 17 21 26 27 25 25 27 29 30 30 30 30 30 29 28 27 25 25 26 24
7 9 13 17 17 19 22 27 33 38 39 38 35 32 32 32 33 33 32 31 30 28 27 26 26 25 25 24 23 21 20 19 19 20 21 22 22 21 21 20 20 19 20 21 21 22 23 23 22 21 21 21 20 20 19 19 19 20 20 19 19 20 18 16 16 17 19 24 26 23 23 25 27 29 29 30 30 30 29 29 28 27 27 27 27
4 7 11 14 15 16 17 21 26 31 36 39 39 38 36 34 34 35 35 35 33 31 29 29 28 28 27 26 25 23 22 21 21 23 23 23 23 22 22 22 22 21 22 23 23 24 23 23 22 21 20 20 19 19 19 19 19 20 20 21 20 21 22 21 20 22 23 26 28 28 28 27 27 28 28 28 29 30 31 31 29 28 27 27 29
4 6 8 9 10 12 14 17 20 24 27 32 36 39 40 39 37 36 38 39 36 31 30 31 30 29 28 27 27 25 24 24 24 25 24 23 23 23 23 23 22 22 23 24 25 24 23 22 21 20 20 19 19 19 19 19 20 19 19 19 19 20 22 23 23 24 26 27 29 30 31 30 29 29 28 27 28 28 29 29 28 26 26 26 28
9 9 10 10 10 10 11 14 17 19 22 25 29 33 35 37 38 37 37 37 35 33 33 34 32 30 29 28 28 27 26 26 26 25 24 23 23 24 23 23 22 23 24 25 24 24 23 22 21 21 20 20 20 19 19 20 20 19 18 16 15 16 19 21 22 23 24 26 28 29 30 31 31 31 31 30 25 22 22 22 22 24 25 26 27
12 13 13 14 14 13 13 14 15 17 20 22 24 26 27 29 32 33 33 34 35 36 36 34 31 31 31 30 30 29 28 27 26 25 24 23 24 23 23 23 23 23 24 24 24 24 23 23 23 22 22 22 22 21 21 21 21 22 22 20 17 15 15 16 17 18 20 23 25 27 29 30 30 30 32 32 26 20 21 23 24 26 26 26 27
13 14 15 15 16 17 17 17 17 17 19 20 21 21 21 22 24 27 30 32 35 37 37 34 32 33 34 33 32 31 28 26 24 23 23 23 23 22 22 22 22 22 23 23 24 24 24 25 24 24 24 24 24 24 23 23 23 24 24 23 21 20 19 17 16 17 18 20 21 23 25 28 30 30 30 33 30 22 19 20 22 23 23 24 26
16 16 16 16 17 19 20 20 20 20 20 20 19 19 20 21 22 25 28 31 34 37 37 34 33 34 35 33 31 29 26 23 22 22 21 21 21 20 20 20 21 21 22 23 24 25 26 26 26 26 27 26 27 27 26 26 26 26 26 26 25 25 25 23 22 20 19 20 21 20 21 24 26 28 29 31 31 25 19 17 18 19 19 20 21
19 18 18 18 18 19 20 21 22 22 22 21 19 18 19 21 23 26 28 31 34 36 35 33 33 35 34 32 29 25 22 21 20 20 19 19 18 18 18 19 20 21 22 23 24 25 26 27 28 28 28 28 28 28 29 29 29 29 29 29 29 29 29 28 28 27 24 24 24 23 23 22 21 24 27 27 27 26 20 17 17 17 18 19 19
22 21 20 20 19 19 20 21 23 24 24 23 21 18 18 20 23 25 28 31 35 37 34 33 34 35 33 30 26 22 20 19 19 18 18 17 16 16 17 18 20 21 22 24 25 26 27 28 29 29 29 29 29 29 30 31 31 32 32 33 33 33 32 32 31 31 30 29 28 27 24 21 20 20 20 19 20 20 18 17 16 17 18 20 19
24 23 22 22 21 20 20 20 22 23 24 25 24 20 19 20 22 25 28 32 36 37 35 34 36 34 31 27 23 20 19 18 17 16 15 14 15 16 17 19 20 22 23 24 25 26 27 28 30 31 31 30 30 30 30 31 33 34 34 34 35 34 35 33 30 29 30 30 31 30 25 22 22 21 18 17 18 19 20 20 19 18 20 22 22
27 25 24 22 22 22 21 21 21 23 24 25 25 22 20 20 22 25 28 32 35 37 36 36 35 32 28 24 20 18 16 14 13 13 12 13 15 17 18 20 21 23 24 25 27 28 29 29 31 31 32 31 30 29 30 31 33 34 35 36 36 36 36 34 29 25 24 25 26 26 23 20 20 20 18 17 17 18 20 23 24 24 25 26 27
28 27 26 23 22 22 23 22 21 22 24 25 25 22 19 19 21 23 27 31 35 37 36 35 33 29 25 21 18 15 13 12 11 11 12 14 16 18 20 22 23 24 26 27 29 30 31 31 31 32 32 32 31 30 30 31 32 34 36 36 37 37 37 36 34 32 31 30 28 27 25 24 23 24 24 23 21 19 19 21 24 26 28 29 30
28 27 27 25 24 23 23 23 22 23 24 25 25 22 18 17 19 22 27 32 37 38 36 34 30 25 21 17 14 12 12 10 10 11 12 14 17 19 21 23 25 27 28 30 31 32 32 31 31 32 33 32 32 31 30 30 32 34 35 35 35 35 35 34 36 37 37 38 37 37 36 35 34 34 34 34 32 27 24 24 23 22 25 28 29
27 27 27 26 25 24 24 24 23 23 23 24 24 21 17 17 20 23 28 34 39 39 36 32 27 21 17 14 13 13 12 11 10 11 13 16 18 20 22 24 26 28 30 32 34 34 34 34 32 33 33 33 32 31 30 31 32 32 33 33 33 33 33 33 35 36 36 37 37 36 35 35 35 35 35 36 36 33 32 30 24 22 26 28 26
28 28 28 27 26 25 24 24 23 23 23 24 23 20 16 17 21 25 30 36 38 35 30 26 22 19 16 14 13 12 11 10 11 12 13 16 19 21 23 25 26 29 31 34 36 36 37 37 37 37 36 34 32 32 30 30 31 32 31 30 30 31 31 32 32 31 31 31 31 29 28 27 28 28 28 29 30 31 33 32 27 25 27 27 25
30 30 29 28 27 25 23 23 23 22 23 23 22 18 16 17 22 26 31 36 34 28 23 21 19 17 14 12 11 9 9 9 10 11 13 17 19 21 23 24 26 29 31 34 37 38 38 40 41 40 39 37 35 34 32 30 30 31 31 30 31 32 31 30 29 29 29 30 29 29 29 30 30 29 27 26 26 27 28 29 29 29 29 28 27
31 31 29 27 26 24 23 22 21 21 22 22 19 17 16 19 23 28 33 34 30 26 23 20 16 12 10 8 7 7 7 8 9 12 15 17 19 20 22 24 26 29 32 35 38 39 41 42 41 38 38 38 37 35 33 31 30 31 32 33 34 34 32 31 29 28 27 27 27 28 29 30 30 29 26 24 24 23 24 25 28 29 30 30 29
30 29 27 25 23 22 22 21 20 21 22 20 16 16 18 20 24 31 35 32 28 26 23 18 14 11 8 6 6 6 7 9 11 13 15 16 18 20 22 24 27 29 33 36 38 40 42 41 37 36 38 40 37 35 34 31 30 31 32 32 32 31 29 29 28 27 27 26 25 25 26 26 27 27 26 25 25 24 23 24 27 30 31 30 29
27 25 23 21 20 20 20 19 19 21 21 18 16 18 20 23 29 34 34 31 28 24 19 14 12 9 7 6 7 8 8 10 12 13 14 17 19 22 24 26 28 30 34 36 38 40 40 37 36 38 40 39 36 34 32 30 29 29 28 27 27 26 26 27 29 29 30 30 29 28 28 28 29 29 28 28 28 26 25 24 26 28 29 29 30
25 23 21 19 18 18 18 18 19 20 18 17 19 22 24 27 32 33 30 26 22 17 13 11 9 8 7 7 7 8 9 10 12 14 17 19 21 23 24 26 28 30 33 36 37 39 39 38 38 39 38 36 34 33 31 29 28 26 24 23 23 23 25 27 28 29 30 31 32 33 33 34 34 33 31 28 25 23 24 25 25 26 27 28 29
24 24 21 19 17 17 17 18 18 17 16 19 23 25 26 30 31 28 24 20 16 13 12 11 10 9 9 7 6 7 9 10 12 15 17 19 20 21 23 25 27 29 32 34 35 37 38 38 37 36 34 33 32 30 29 29 27 25 24 22 22 23 25 26 27 28 30 32 33 34 35 35 35 35 33 31 27 24 24 26 26 25 26 27 27
23 24 22 19 17 17 16 16 17 17 19 22 24 27 32 32 28 24 21 18 15 13 12 11 10 9 6 3 2 3 6 9 11 13 16 17 19 21 23 25 27 28 30 33 34 35 36 36 35 33 32 30 28 27 27 27 26 24 22 20 21 22 23 24 26 27 29 31 32 34 35 34 34 34 33 33 32 30 29 29 28 26 25 26 26
22 24 21 18 17 16 16 17 19 20 21 25 29 32 30 27 25 24 22 19 17 15 13 11 9 7 5 4 3 6 8 10 12 14 16 18 20 22 24 26 28 30 31 32 34 34 34 34 32 30 28 26 25 24 23 22 21 20 19 18 18 19 20 22 24 26 28 30 31 32 33 33 33 33 33 33 33 32 31 30 29 28 27 26 26
23 23 20 18 17 17 18 19 21 25 29 31 31 29 26 25 24 23 21 19 18 16 14 11 8 6 6 6 7 9 11 12 14 16 18 20 22 24 25 27 28 30 31 32 32 32 32 30 27 24 23 21 20 19 18 17 17 17 18 18 18 18 19 22 24 25 27 28 30 31 32 32 32 32 32 33 33 33 31 30 30 30 28 26 26
23 22 20 18 19 20 21 23 28 34 34 32 30 27 25 24 23 22 21 18 16 15 14 11 8 6 6 7 9 11 12 14 15 18 19 21 22 24 25 26 27 28 29 30 30 29 27 23 20 19 18 17 17 17 17 18 19 20 20 20 20 20 20 22 24 26 27 27 29 30 31 31 31 31 31 32 33 32 31 29 29 28 27 26 26
21 20 20 20 23 24 27 32 37 37 35 35 33 29 24 22 22 21 20 17 15 14 12 9 7 6 6 8 10 11 13 14 16 18 19 20 21 22 23 24 25 26 26 27 26 24 21 18 17 16 16 17 18 19 21 22 24 25 24 23 23 22 22 23 24 26 26 26 28 29 29 30 30 29 29 30 30 30 30 29 27 26 26 26 26
22 21 22 23 27 31 36 40 40 37 34 32 30 28 25 23 21 20 18 16 15 12 10 7 6 6 7 9 10 11 13 15 17 18 19 20 21 21 22 23 23 23 23 23 21 18 15 15 17 19 19 19 21 23 24 25 26 26 26 25 24 23 22 23 23 24 24 25 27 28 29 29 29 28 27 27 27 27 28 27 26 25 25 25 26
24 24 26 29 34 40 42 41 38 34 31 28 26 25 25 25 23 22 19 15 12 10 7 5 4 6 8 9 10 11 13 16 17 18 19 20 21 22 22 22 21 21 21 20 18 15 14 16 21 23 24 24 25 25 25 26 26 27 27 27 26 23 22 22 22 22 23 25 26 28 28 28 28 27 25 24 24 25 25 25 25 25 25 26 26
26 28 31 36 41 43 41 38 35 31 29 27 25 24 25 26 26 23 19 15 12 8 5 3 2 5 7 9 10 11 13 16 17 18 19 20 21 22 22 21 20 21 21 19 16 15 16 18 21 25 27 27 27 26 26 26 27 27 27 27 26 24 22 21 21 22 23 24 25 27 28 28 27 26 24 23 23 23 23 23 23 23 24 25 26
28 32 38 42 43 41 38 35 32 28 25 24 24 25 26 26 24 21 18 16 13 9 6 3 1 4 7 9 10 12 14 16 18 19 19 20 22 23 23 22 21 21 21 19 16 16 17 18 20 24 27 27 27 27 27 27 27 27 27 26 25 24 22 21 21 21 22 23 25 26 27 27 27 25 23 22 22 21 22 22 22 22 23 24 24
35 40 43 42 39 36 34 31 27 25 24 25 26 26 25 22 19 17 15 12 10 8 6 3 1 4 7 9 11 12 14 17 19 19 20 21 22 24 25 25 24 22 23 21 18 17 17 18 21 24 26 27 27 27 28 28 28 27 26 26 25 24 22 21 20 21 21 22 23 25 25 26 26 24 22 21 21 21 20 21 21 21 22 23 23
43 41 38 35 32 29 28 26 23 23 24 25 25 23 21 18 16 13 10 9 7 6 5 3 2 4 7 9 11 13 15 17 18 18 19 21 23 26 28 28 25 23 22 21 20 21 21 20 21 24 26 26 27 27 28 28 28 28 27 26 25 24 23 21 20 20 19 20 21 22 23 23 24 23 21 20 20 20 19 19 19 20 23 25 25
38 35 32 30 28 27 26 24 22 21 23 24 22 21 18 16 14 11 8 8 7 6 4 2 3 5 7 9 11 13 15 15 16 17 20 22 25 27 29 29 27 24 21 20 22 25 25 23 23 24 25 26 27 27 28 28 28 28 27 26 25 24 22 20 19 18 17 18 19 19 20 21 21 21 20 19 18 18 18 18 17 19 23 26 27
34 32 30 28 27 26 25 23 21 21 22 22 20 18 16 14 11 8 7 6 6 4 2 1 4 6 7 9 11 13 14 15 17 19 21 23 25 28 29 30 30 27 24 23 24 26 26 25 24 25 26 27 27 28 29 29 29 28 28 27 26 24 22 20 18 17 16 16 16 16 16 18 19 19 18 18 17 16 16 17 16 17 18 20 22
29 27 26 25 24 22 20 19 20 21 21 21 18 16 13 10 8 6 6 5 5 3 0 2 5 7 8 9 11 13 14 16 18 20 21 22 24 27 29 30 31 30 28 27 26 26 27 27 26 25 26 27 28 28 29 29 29 29 28 28 27 25 22 20 18 17 16 16 15 14 13 14 16 17 16 16 15 14 15 15 15 15 15 15 17
23 23 22 21 20 18 17 18 20 21 20 18 15 12 9 8 6 6 5 4 2 1 3 4 6 7 8 9 10 12 15 17 18 19 19 21 23 25 27 29 31 31 31 30 29 28 27 27 27 26 27 28 28 28 29 29 29 29 29 28 27 26 24 21 19 18 17 16 14 11 10 11 12 14 15 15 13 12 13 14 13 13 13 14 14
19 19 19 18 17 17 19 21 21 19 16 13 11 9 8 6 6 5 4 2 1 3 4 5 6 7 8 9 10 12 14 15 17 18 18 20 22 24 26 28 30 31 32 32 31 29 28 27 27 27 28 29 30 29 29 29 29 30 29 28 27 26 24 21 19 18 16 14 11 8 6 6 8 10 13 13 11 11 12 12 12 12 12 11 13
16 16 16 16 16 18 20 20 18 15 12 10 8 8 7 5 4 3 2 1 2 4 5 6 7 7 8 8 9 11 13 14 15 17 18 19 21 23 25 26 28 31 33 33 33 31 29 27 28 28 29 30 30 30 29 29 30 30 29 29 28 27 25 23 19 17 15 12 10 9 6 2 4 7 11 12 11 11 11 11 10 10 10 11 13
14 14 15 17 17 17 19 18 14 11 9 8 8 7 6 4 3 2 1 2 4 4 6 6 7 7 6 7 8 10 11 12 14 16 17 19 20 22 24 25 26 29 32 34 34 32 29 28 28 29 29 29 30 30 29 29 29 30 30 30 29 28 26 24 20 17 15 14 13 11 9 5 3 6 9 10 10 10 11 10 10 10 11 13 15
13 14 16 17 17 17 17 15 11 8 7 7 7 5 4 2 1 1 1 3 4 4 5 6 6 6 6 6 7 8 10 11 13 15 17 18 20 21 23 24 26 27 30 33 35 34 30 29 29 29 29 29 29 29 28 28 29 30 30 30 29 28 27 24 21 18 16 15 13 11 9 7 4 4 6 7 8 9 10 10 10 11 12 14 17
12 13 14 15 16 15 13 11 9 8 7 6 5 3 2 2 1 1 2 3 4 5 5 6 6 6 6 6 6 8 9 11 13 14 16 18 19 21 22 23 25 26 28 32 35 35 32 30 30 30 29 29 30 29 28 28 29 29 30 30 30 29 27 24 21 18 16 15 13 10 9 7 5 4 4 5 7 8 9 10 11 12 14 16 19
11 11 12 13 13 12 10 9 9 8 6 4 3 2 1 0 1 2 3 4 5 6 7 7 8 8 8 7 7 7 9 10 11 13 15 17 18 20 21 22 23 25 27 31 35 35 32 31 31 30 30 30 31 30 29 28 28 29 30 30 29 28 26 24 21 19 16 15 13 11 9 8 6 4 3 4 6 8 9 10 12 14 16 18 21
11 11 12 12 12 11 10 10 9 7 5 3 2 1 0 1 2 3 4 5 6 7 8 9 9 9 9 9 8 8 9 10 11 12 13 15 17 20 21 21 22 24 26 29 33 34 32 31 31 30 29 30 31 30 29 27 26 28 30 31 30 28 27 24 22 20 18 16 14 12 10 8 6 4 3 4 6 8 10 13 15 16 18 21 24
11 11 11 11 11 10 10 8 7 5 3 2 2 1 1 2 3 4 5 6 7 8 8 9 10 10 10 10 10 9 9 10 10 11 12 13 16 19 21 21 21 22 24 28 32 33 31 30 29 29 28 29 30 30 29 27 25 25 28 30 30 28 26 25 24 21 19 16 14 12 10 8 7 5 4 4 6 9 12 15 18 20 22 24 27
11 10 10 9 9 8 7 6 5 4 3 2 2 1 1 2 3 5 5 6 7 8 8 9 9 9 10 10 10 10 10 9 9 10 10 12 14 18 20 20 19 20 22 26 30 31 30 29 28 27 26 26 28 29 29 28 26 25 26 28 28 28 26 25 24 22 19 16 13 11 10 9 8 7 6 6 7 10 13 17 20 22 25 27 29
9 8 8 7 6 6 5 5 4 4 3 2 1 1 3 4 4 4 5 5 6 7 8 8 9 9 10 10 10 10 10 10 9 9 9 10 13 17 19 19 18 19 20 23 27 30 29 28 27 26 24 24 25 26 27 28 27 26 24 24 25 26 26 25 24 22 19 16 13 11 10 9 8 8 9 9 10 13 15 18 21 24 26 28 31
9 8 7 6 5 5 5 4 3 3 2 1 1 3 4 4 3 3 4 5 6 7 8 9 9 9 10 10 10 10 10 10 8 7 8 9 12 16 18 18 17 17 18 20 24 27 28 27 26 25 23 22 23 24 25 26 27 26 24 23 23 24 24 24 23 22 20 16 13 12 11 10 10 11 12 12 13 15 18 20 23 26 28 30 31
Wind_Direction
241 240 238 238 238 232 230 239 247 246 245 244 242 242 242 241 241 241 241 241 243 244 245 245 246 246 247 251 256 261 267 275 281 286 284 281 282 287 294 303 311 319 324 327 329 331 332 332 331 330 329 328 327 326 322 319 312 303 292 283 277 273 273 272 275 281 284 284 284 285 285 286 286 288 288 287 285 281 275 269 268 270 271 270 270
248 248 244 242 242 239 235 238 244 246 246 245 243 242 242 241 240 239 240 240 240 242 244 246 247 247 248 250 253 258 264 272 280 285 286 285 284 285 288 294 301 309 315 319 322 324 324 325 324 324 323 321 321 320 318 318 317 313 306 296 286 275 273 274 275 280 284 286 286 286 287 287 286 286 285 285 286 286 283 275 265 262 265 267 268
239 250 251 247 245 244 241 240 243 246 247 246 244 244 244 244 242 240 239 239 239 239 241 243 246 247 248 249 251 254 259 267 275 280 282 283 283 284 288 293 300 308 313 315 316 317 317 318 318 317 316 315 313 312 311 311 310 310 308 305 299 288 278 277 278 280 285 288 289 288 288 287 286 286 286 286 286 287 288 283 271 259 257 260 265
221 238 251 251 247 245 243 242 243 245 248 249 248 248 247 247 246 243 241 240 239 238 239 240 243 246 247 248 249 252 256 262 268 273 276 278 279 282 287 293 302 309 312 313 313 314 314 314 314 313 312 311 310 309 307 307 307 306 305 304 303 299 291 284 282 283 286 289 291 291 290 289 289 288 288 288 290 290 288 285 280 269 258 255 260
235 242 246 246 244 241 241 243 244 245 247 249 251 251 251 251 250 247 244 242 240 238 237 238 240 242 244 247 249 251 254 258 263 267 271 273 276 280 284 290 297 304 308 310 312 314 314 314 314 314 313 311 310 308 306 304 304 303 302 301 301 300 297 292 288 287 288 290 292 293 293 293 293 292 290 290 290 290 289 287 285 280 268 258 256
258 252 245 243 245 244 240 241 244 246 248 250 252 253 254 255 254 252 247 243 240 238 238 237 239 240 241 243 246 248 251 254 259 264 267 271 275 278 280 285 291 299 305 308 312 314 315 316 316 316 315 314 312 309 307 304 302 300 299 298 297 296 295 294 292 291 292 292 293 295 296 297 295 294 294 292 288 287 288 288 289 287 280 268 259
306 279 266 263 263 258 251 246 246 249 252 254 255 256 257 257 257 256 250 244 239 239 240 239 238 239 239 240 242 245 247 251 256 261 266 270 273 276 278 282 289 297 302 307 311 314 316 317 317 316 314 312 311 308 305 303 301 298 295 294 294 293 293 292 291 290 290 291 291 293 295 296 296 296 295 294 291 288 288 289 291 288 283 276 267
314 311 304 297 290 283 273 259 251 250 253 255 257 258 260 261 261 261 256 249 243 241 241 239 236 235 235 236 239 241 244 248 253 258 263 267 271 274 278 283 290 296 300 304 309 312 314 316 316 315 313 310 308 305 301 299 297 294 291 288 285 286 288 289 288 286 286 286 288 289 290 291 293 295 296 297 295 289 283 281 282 281 279 278 274
295 297 298 298 295 291 286 278 268 258 253 253 256 258 261 264 266 266 263 255 246 241 238 236 235 235 233 233 235 238 241 246 251 256 260 264 268 272 278 284 291 296 300 303 307 310 312 314 314 314 312 310 307 303 299 297 294 291 290 288 282 278 278 280 280 279 278 280 282 285 287 287 289 291 292 294 294 288 282 278 275 277 278 276 274
294 292 292 292 291 288 287 285 282 274 263 256 255 257 259 260 261 264 261 253 244 240 235 232 233 235 234 233 234 237 241 246 251 255 259 263 267 273 281 287 292 297 300 303 305 308 310 311 312 312 311 310 307 304 301 298 294 291 289 286 282 278 274 272 269 269 270 271 273 277 279 280 283 285 286 288 289 288 286 285 282 279 279 278 277
299 297 295 292 290 289 287 284 282 281 276 267 259 257 258 256 256 258 256 248 242 238 233 229 229 231 232 234 235 237 240 245 250 255 260 265 271 279 285 290 294 297 301 303 305 306 307 308 309 309 309 309 307 304 303 300 296 292 289 285 282 279 276 273 270 266 265 265 265 266 269 271 277 281 280 282 284 284 282 284 284 279 276 278 280
299 298 297 295 292 291 289 285 283 282 282 279 270 261 261 261 258 256 253 246 238 232 228 226 225 226 229 232 234 235 239 244 251 257 265 272 278 284 289 293 297 300 301 303 305 305 306 307 307 308 308 308 306 305 304 301 298 295 292 288 285 281 279 276 274 271 268 266 265 263 263 266 270 274 275 276 278 279 278 277 277 276 273 272 274
300 298 297 296 296 293 289 287 284 283 283 283 277 267 261 261 258 256 253 246 236 227 224 223 223 224 227 230 231 233 237 243 251 260 269 277 283 289 294 297 299 301 303 303 304 305 306 307 308 308 309 308 307 307 304 301 299 296 293 291 288 285 283 279 276 273 270 267 265 264 263 263 264 266 270 272 272 272 273 272 272 272 269 268 269
300 300 299 297 296 295 291 285 282 280 281 282 279 270 262 259 258 255 251 243 232 223 221 221 220 221 224 226 229 233 236 241 251 261 271 279 287 294 298 299 300 302 303 304 305 306 307 309 309 309 309 308 308 307 304 301 298 295 292 290 288 287 285 282 280 277 273 269 266 265 263 261 262 264 267 268 267 267 268 269 269 267 267 267 267
299 301 302 299 295 291 289 284 279 275 275 277 276 272 265 261 259 254 248 240 229 221 219 218 216 217 219 223 226 231 237 246 256 263 272 282 292 299 300 301 302 304 304 305 306 307 309 310 310 310 309 308 307 305 302 299 296 294 291 289 287 285 283 281 278 275 272 269 268 267 265 262 262 264 264 263 264 265 266 266 264 264 265 266 265
299 300 301 300 294 287 283 281 277 272 270 271 271 269 265 262 260 255 246 234 224 219 217 214 212 213 216 218 222 231 242 253 259 265 275 287 297 302 303 303 305 305 306 306 307 308 309 311 311 311 309 308 307 306 303 299 296 293 290 288 286 284 282 280 277 275 272 269 268 266 263 260 258 257 257 258 261 265 268 266 263 263 264 264 264
301 300 297 295 290 284 280 278 275 271 268 267 267 266 263 260 259 254 243 229 220 216 213 209 209 212 213 214 219 231 241 247 255 267 282 293 300 303 304 305 305 305 306 306 306 308 309 310 311 311 310 310 309 307 304 300 296 293 291 289 287 284 282 281 279 278 276 274 273 272 270 268 265 263 262 263 265 265 264 263 261 260 259 259 261
303 299 293 288 285 281 278 275 273 270 266 265 265 262 258 256 255 251 241 228 217 211 207 204 203 204 204 208 218 230 238 246 260 275 288 297 302 304 304 304 305 306 306 307 307 308 309 309 310 310 309 309 309 307 305 301 298 295 292 291 288 285 284 283 282 280 279 278 277 277 276 274 273 272 270 268 266 262 257 256 255 254 254 254 255
300 294 289 285 282 278 275 273 271 267 263 263 261 256 253 256 255 248 233 219 208 202 199 197 193 190 193 205 221 235 249 264 276 286 294 299 301 302 303 304 305 306 307 306 307 308 310 312 313 311 309 309 308 305 304 301 298 296 293 290 286 285 286 286 285 283 281 279 278 275 273 272 271 271 270 269 266 261 255 252 249 248 250 250 250
296 290 286 283 280 276 272 270 268 263 260 258 255 251 249 253 254 241 220 207 202 198 193 190 186 186 197 214 230 246 262 277 286 291 293 295 298 300 301 302 304 305 304 304 305 308 311 313 313 311 310 310 309 307 305 303 300 298 294 288 284 285 288 287 283 281 279 277 276 273 270 269 267 266 264 263 262 259 255 250 245 243 245 247 245
297 291 285 280 277 273 269 266 263 259 256 252 246 242 244 250 247 227 207 199 196 191 185 183 185 194 207 221 240 258 272 279 282 284 288 292 295 298 299 299 300 300 300 301 304 307 310 311 310 309 309 310 310 309 307 305 301 296 290 286 285 287 287 285 281 279 277 275 275 274 273 271 270 267 263 259 256 253 251 248 244 241 242 244 243
299 291 282 275 271 265 261 259 256 251 247 243 236 235 241 244 233 214 199 191 186 181 178 181 190 199 203 214 236 253 266 272 274 279 286 291 292 293 293 294 295 296 298 301 304 306 308 307 306 306 308 310 311 310 308 305 300 294 290 288 288 287 285 283 280 278 276 275 275 274 273 272 271 268 263 259 256 254 251 249 247 244 243 243 241
298 289 278 268 261 256 254 252 247 242 239 233 227 231 236 230 214 200 189 181 177 175 175 183 193 196 194 208 233 248 261 271 276 280 284 284 284 285 288 291 295 298 299 301 304 306 306 305 305 306 308 310 310 309 307 305 300 296 293 290 287 284 282 279 276 275 275 275 274 273 272 272 273 273 269 265 261 257 254 252 250 247 244 244 244
292 284 276 265 255 250 248 243 239 236 230 225 226 229 224 209 195 185 176 172 171 169 171 176 179 180 189 209 235 250 259 267 272 275 278 280 284 289 293 297 300 301 301 302 304 305 305 304 305 307 309 311 311 312 311 309 306 301 296 290 284 281 279 276 275 275 276 276 275 274 273 273 273 274 274 273 268 261 255 254 252 249 246 246 245
284 280 273 263 253 247 242 236 231 226 223 228 230 219 198 182 173 168 165 166 165 162 162 166 174 187 200 213 230 245 256 267 275 281 286 291 296 299 301 302 303 303 304 305 306 306 306 307 310 313 316 317 317 316 313 311 310 306 301 294 288 284 281 280 280 279 277 277 277 276 275 275 275 274 276 276 273 267 263 260 256 250 247 247 247
273 273 270 261 250 244 235 224 219 220 222 220 207 186 169 161 155 149 148 151 153 159 166 175 185 189 182 174 207 269 287 296 301 303 304 306 307 308 309 310 310 311 311 311 311 311 313 316 319 321 322 321 319 316 312 311 311 309 304 298 291 287 285 283 282 280 278 278 278 277 277 278 278 278 278 276 272 270 269 266 260 252 248 248 247
259 265 267 259 246 233 224 220 217 209 197 184 173 164 160 156 147 140 142 153 162 171 179 181 173 153 114 76 21 347 336 330 328 325 321 320 321 321 321 320 319 319 318 317 317 317 319 321 323 324 323 322 320 317 314 312 310 307 303 297 291 286 283 281 279 278 277 277 277 277 278 279 280 279 278 275 273 272 270 266 260 256 253 251 247
251 257 260 251 235 224 222 219 200 177 166 162 158 153 149 146 143 143 152 166 172 172 170 161 141 111 79 46 13 359 351 343 339 337 333 332 331 329 327 324 323 323 323 321 319 319 320 322 323 324 323 321 318 315 311 307 304 302 299 296 291 284 280 279 278 276 275 276 278 278 279 280 280 279 277 274 272 272 270 265 259 257 257 254 248
248 250 244 232 225 221 215 198 175 160 156 153 146 140 138 142 150 156 161 167 168 162 151 139 119 92 60 32 12 2 356 349 345 343 340 337 334 330 328 327 326 326 324 321 318 318 320 322 323 323 322 319 317 314 312 311 311 310 307 303 298 293 288 286 283 280 279 279 279 279 279 280 280 279 276 274 272 270 268 263 257 254 253 250 246
243 235 222 218 218 209 192 174 162 155 150 145 140 140 143 148 155 160 159 157 152 142 128 115 95 67 40 22 12 6 359 353 349 346 343 339 335 332 331 329 329 328 325 320 317 319 322 324 325 324 322 321 320 320 320 320 318 317 315 311 307 303 298 293 288 285 282 279 277 276 277 278 278 276 273 271 270 269 267 263 256 250 245 242 242
230 216 210 214 208 188 169 159 153 149 144 141 142 146 146 144 148 154 156 149 138 125 112 101 78 47 27 16 10 5 0 357 354 350 346 342 339 337 335 334 334 332 327 322 322 325 326 328 332 333 329 326 326 326 325 325 324 322 320 317 313 309 303 297 293 289 286 281 277 275 274 274 274 273 270 269 268 267 266 263 256 248 240 238 239
214 205 202 197 183 167 156 151 148 146 143 144 148 150 148 145 145 148 149 144 135 126 118 105 66 30 17 11 6 4 3 1 358 354 350 346 344 342 339 336 335 335 334 333 334 335 333 335 339 341 338 334 332 331 330 329 327 325 323 319 317 314 308 302 297 292 286 282 278 276 275 274 274 272 269 269 268 266 263 260 253 244 238 236 235
203 196 185 172 161 153 149 147 146 144 142 145 151 153 152 151 149 149 150 152 153 153 150 128 54 21 12 7 4 4 5 4 1 357 353 351 350 349 344 339 338 341 345 348 347 342 340 340 341 343 342 340 337 336 334 333 331 329 326 322 320 318 312 306 301 294 287 283 279 276 275 275 273 270 266 266 266 264 261 259 253 244 238 235 232
185 172 160 152 148 147 148 147 145 142 141 146 155 158 155 153 151 149 151 157 163 168 173 172 51 21 13 7 3 3 5 6 4 359 356 355 356 355 352 351 350 352 357 359 353 345 342 340 340 342 344 343 341 339 337 336 334 332 330 326 322 319 316 311 305 298 291 285 280 277 275 274 272 267 262 261 262 260 257 255 251 243 235 230 227
151 146 144 142 142 145 148 148 146 145 149 155 160 158 153 148 146 145 148 155 163 171 178 175 70 28 17 9 3 1 4 6 4 0 358 358 359 1 2 2 359 360 4 5 356 347 342 339 340 345 346 345 344 342 340 338 337 336 334 331 327 324 321 317 310 303 296 289 282 277 274 273 270 265 259 258 260 258 254 252 247 238 230 228 229
135 138 140 140 141 144 148 149 146 149 156 160 158 152 146 142 142 146 153 161 170 180 183 162 76 34 19 10 4 1 3 3 2 1 1 2 5 8 10 8 4 2 3 3 357 352 347 343 342 347 348 347 346 345 343 341 340 339 339 337 334 330 326 322 316 309 301 293 286 280 275 272 268 263 256 254 256 255 252 250 246 235 228 227 230
134 136 139 141 144 146 150 152 152 154 157 157 151 144 141 143 149 156 162 171 179 186 179 130 61 29 15 9 4 1 359 358 360 3 4 5 9 13 14 12 9 4 359 357 357 356 352 347 345 348 350 350 348 346 345 344 343 343 343 342 340 336 332 327 321 314 306 298 291 284 278 271 266 260 253 248 250 251 248 245 244 237 229 226 228
130 132 135 140 144 147 150 153 154 153 153 150 144 142 144 150 157 160 161 165 175 179 163 73 29 13 4 2 2 0 357 356 360 4 6 8 11 14 14 13 11 7 1 357 357 358 355 352 350 351 353 353 351 348 347 346 345 345 345 345 344 342 339 335 328 321 315 308 300 292 282 272 264 257 248 241 242 246 243 239 239 238 232 227 228
128 132 137 142 146 150 152 152 151 150 148 146 144 145 149 153 155 157 159 165 173 173 82 12 3 357 353 355 0 0 358 358 1 4 6 9 11 12 13 13 12 9 6 1 358 358 358 357 355 356 357 356 354 351 349 348 347 347 348 348 348 348 346 342 335 329 326 322 315 304 290 274 262 252 239 231 231 235 235 233 232 230 227 225 228
135 140 145 151 154 155 153 152 150 147 145 145 147 151 154 155 156 160 162 165 166 36 3 350 346 346 347 353 359 360 359 1 2 3 6 10 11 10 11 11 11 10 8 5 1 360 360 360 359 358 359 359 357 354 351 350 349 349 351 351 351 351 351 348 342 338 337 333 324 311 295 277 262 243 226 219 218 220 224 225 222 221 225 229 232
144 150 154 157 157 155 152 150 147 145 146 149 152 153 155 154 155 158 158 152 15 353 343 335 335 341 344 347 353 358 0 2 2 2 6 10 11 9 8 9 10 10 9 7 4 2 2 2 1 359 360 1 360 356 354 352 351 351 353 354 355 355 355 353 349 347 344 340 335 331 318 283 255 229 211 203 200 202 210 213 212 216 225 230 229
157 158 157 156 156 155 153 150 148 149 153 155 153 152 152 147 141 144 143 9 346 337 332 330 332 336 339 341 346 352 358 0 0 1 4 9 11 9 6 6 7 8 9 8 6 3 3 3 2 360 359 0 360 358 356 355 353 353 354 356 357 358 358 357 356 354 352 352 358 6 7 339 223 203 193 188 186 188 192 195 198 209 218 218 216
162 159 155 154 154 155 156 155 155 157 160 159 159 156 148 135 129 130 34 345 336 330 329 329 328 327 328 332 336 342 350 355 357 357 0 5 9 8 5 3 3 5 7 8 7 5 5 6 5 2 360 360 0 1 359 357 356 355 356 357 359 1 1 360 359 360 1 6 13 17 23 42 123 170 176 176 177 178 181 185 194 205 210 208 206
161 157 154 154 154 156 159 163 165 165 161 162 163 157 143 134 131 82 357 341 333 329 329 328 324 321 322 327 330 333 338 344 350 353 356 1 5 5 3 1 0 2 5 6 6 6 8 10 8 5 2 1 3 4 4 2 1 359 358 358 360 3 4 3 3 4 7 13 19 23 29 46 86 143 164 174 182 185 185 190 199 203 202 200 197
151 152 153 156 159 162 165 167 167 162 156 157 157 148 137 137 113 6 339 331 332 331 331 336 337 335 333 332 329 327 329 334 341 348 353 357 1 3 1 359 358 359 3 4 5 7 12 13 10 7 5 4 5 6 6 6 5 4 2 1 2 4 6 7 7 8 13 20 25 28 37 52 75 104 136 175 201 206 202 200 200 197 192 190 186
136 140 148 156 165 170 171 166 161 155 150 147 147 136 127 144 315 319 320 325 331 332 335 342 346 347 346 342 333 329 330 331 334 342 350 355 358 360 0 359 357 358 2 4 5 8 14 16 13 10 8 6 7 8 7 6 7 8 7 6 6 7 9 11 12 14 19 27 31 33 39 52 69 90 127 169 192 200 198 193 190 188 184 181 178
131 136 144 153 162 168 167 162 159 152 141 136 146 162 222 277 298 312 321 325 329 332 336 341 343 345 349 350 343 336 335 334 334 339 348 354 356 358 360 359 357 358 2 5 6 9 14 17 15 13 10 8 8 10 9 7 6 9 11 11 10 10 12 15 17 18 21 27 32 35 38 47 64 90 136 169 178 181 182 180 180 180 177 174 169
134 138 144 151 157 159 158 158 156 152 144 154 187 216 257 290 306 316 321 324 330 336 340 341 341 343 347 350 349 345 340 340 342 342 345 351 356 358 0 1 359 359 3 7 7 9 14 18 17 15 13 12 11 13 13 9 6 8 11 13 13 13 14 17 20 19 20 26 33 39 44 52 69 94 128 158 166 166 167 169 171 172 170 166 164
132 134 140 148 154 155 156 159 162 164 169 180 189 207 285 306 309 314 322 328 335 342 345 344 344 345 345 348 350 349 346 349 353 348 344 349 356 359 1 4 3 1 4 8 9 10 14 19 19 18 17 17 16 17 17 14 10 8 9 12 14 16 18 21 23 22 22 27 35 45 53 62 77 99 123 144 153 155 156 159 162 164 164 161 160
125 129 136 147 153 155 156 158 158 158 161 157 160 284 303 308 310 317 330 339 345 351 354 353 353 353 352 351 351 350 350 356 2 354 345 349 358 2 5 8 8 6 8 11 10 11 15 21 22 19 19 20 20 20 21 20 17 13 9 10 13 17 21 24 26 26 26 31 39 50 61 72 88 107 123 136 145 149 151 152 155 157 158 157 156
100 105 111 119 124 125 128 131 133 137 144 149 297 297 300 308 319 335 352 360 1 1 0 358 358 360 359 358 357 355 356 2 7 360 351 354 2 6 9 13 14 12 13 14 13 14 17 22 23 20 19 20 21 21 23 25 24 20 16 16 18 21 23 26 29 30 32 36 45 55 68 81 97 110 122 131 139 142 146 149 151 152 152 152 152